GEFSMA_con_prob3kmehi_204.txt.gz
EHI
0 0 0 0 0 0 0 0 0 0 0 0 0 0 0 0 0 0 0 0 1 1 1 2 3 3 4 5 5 4 3 3 2 1 0 0 0 0 0 0 0 0 0
0 0 0 0 0 0 0 0 0 0 0 0 0 0 0 0 0 0 0 0 0 0 0 1 2 3 3 5 6 6 5 4 2 0 0 0 0 0 0 0 0 0 0
0 0 0 0 0 0 0 0 0 0 0 0 0 0 0 0 0 0 0 0 0 0 0 2 3 2 2 3 5 6 6 5 3 1 1 1 0 0 0 0 0 0 0
0 0 0 0 0 0 0 0 0 0 0 0 0 0 0 0 0 0 0 0 0 0 1 3 4 3 2 2 3 5 6 7 5 3 2 2 1 0 0 0 0 0 0
0 0 0 0 0 0 0 0 0 0 0 0 0 0 0 0 0 0 0 0 0 0 0 2 3 3 2 2 3 4 5 7 7 5 4 4 2 1 0 0 0 0 0
1 1 0 0 0 1 1 1 0 0 0 0 0 0 0 0 0 0 0 0 0 0 0 0 1 1 2 3 3 3 4 6 7 7 7 6 5 3 1 1 1 0 0
2 2 1 1 1 2 2 1 0 0 0 0 0 0 0 0 0 0 0 0 0 0 0 0 0 0 1 2 3 3 3 3 4 5 8 8 8 6 4 3 2 0 0
2 1 1 2 2 3 3 2 1 1 1 1 1 0 0 0 0 0 0 0 0 0 0 0 0 0 0 1 1 2 2 1 1 3 6 8 8 7 4 3 2 0 0
1 0 1 1 2 3 3 3 3 2 2 2 2 1 1 1 1 0 0 0 0 0 0 0 0 0 0 1 1 1 0 0 0 2 3 4 4 3 2 2 1 0 0
0 0 0 0 1 2 3 3 3 3 3 3 3 3 2 2 1 0 0 0 0 0 0 0 0 0 0 1 1 0 0 0 0 1 1 0 1 1 1 1 1 0 0
0 0 0 0 1 1 3 3 3 3 3 3 3 3 3 2 1 0 0 0 0 0 0 0 0 0 0 0 0 0 0 0 0 0 0 0 0 0 0 0 0 0 0
0 1 1 2 2 3 5 5 4 4 3 3 3 3 3 2 1 0 0 0 0 0 0 0 0 0 0 0 0 0 0 0 0 0 0 0 0 0 0 0 0 0 0
1 2 3 3 3 5 6 6 6 5 4 3 3 3 3 2 1 1 1 0 0 0 0 0 0 0 0 0 0 0 0 0 0 0 0 0 0 0 0 0 0 0 1
4 4 5 4 4 4 5 6 6 6 4 3 3 3 3 2 1 1 1 0 0 0 0 0 0 0 0 0 0 0 0 0 0 0 0 0 0 0 0 0 0 0 1
5 6 6 6 5 4 5 6 6 6 6 5 5 4 3 1 0 1 1 0 0 0 0 0 0 0 0 0 0 0 0 0 0 0 0 0 0 0 0 0 0 0 1
5 6 7 8 8 7 6 7 7 7 8 8 7 6 4 2 1 1 1 0 0 0 0 0 0 0 0 0 0 0 0 0 0 0 0 0 0 0 0 0 0 0 0
5 6 8 9 9 8 7 8 9 8 9 10 9 7 5 4 3 2 2 1 1 1 1 1 0 0 0 0 0 0 0 0 0 0 0 0 0 0 0 0 0 0 0
5 7 9 10 10 9 8 9 10 10 10 9 8 7 6 5 4 3 3 3 3 3 2 2 1 0 0 0 0 0 0 0 0 0 0 0 0 0 0 0 0 0 0
7 9 11 11 10 9 9 10 11 11 11 8 7 6 6 6 5 4 4 4 5 4 3 3 1 1 0 0 0 0 0 0 0 0 0 0 0 0 0 0 0 0 0
11 13 12 12 11 10 8 8 8 9 8 6 6 6 6 6 6 6 6 6 6 5 4 3 3 2 1 0 0 0 0 0 0 0 0 0 0 0 0 0 0 0 0
13 14 13 12 12 10 6 5 5 6 6 5 5 6 7 7 6 6 6 6 6 5 4 3 3 3 1 0 0 0 0 0 0 0 0 0 0 0 0 0 0 0 0
15 15 15 13 12 9 6 3 3 4 4 5 5 6 8 8 7 6 5 5 4 3 3 3 3 3 2 1 0 0 0 0 0 0 0 0 1 1 0 0 0 0 0
18 17 17 15 13 10 5 2 1 2 4 4 4 6 7 8 8 7 5 3 2 2 1 2 3 4 3 1 0 0 1 0 0 1 0 0 0 1 1 0 0 0 0
19 19 18 17 16 11 6 2 0 1 3 3 3 4 6 7 7 6 5 2 2 1 1 1 1 2 2 1 0 0 0 0 0 0 0 0 0 0 0 0 0 0 0
17 17 16 17 17 13 6 1 0 2 4 4 3 3 3 4 3 3 2 1 1 1 0 0 0 1 1 1 0 0 0 0 0 0 0 0 0 0 0 0 0 0 0
14 14 14 16 17 13 6 1 1 4 6 5 3 2 1 1 1 1 1 0 0 0 0 0 0 0 0 0 0 0 0 0 0 0 0 0 0 0 0 0 0 0 0

GEFSMA_con_prob3kmehi_210.txt.gz
EHI
2 2 1 0 0 0 1 1 1 0 0 0 0 0 0 0 0 0 0 1 1 1 1 1 1 3 4 6 5 4 4 4 4 3 2 1 0 0 0 0 0 0 1
3 4 3 1 0 1 1 1 1 0 0 0 0 0 0 0 0 1 1 1 2 1 1 1 1 2 4 6 5 5 5 5 4 3 2 1 0 0 0 0 0 0 1
4 5 5 3 2 2 3 3 2 2 1 1 1 1 1 1 1 2 2 1 1 2 2 2 2 2 3 4 4 4 5 6 5 4 3 1 0 0 0 0 0 0 1
5 5 5 5 4 4 5 4 3 4 3 3 3 3 2 2 2 2 2 1 1 1 3 5 4 3 3 3 3 2 3 5 5 4 3 2 1 0 0 0 0 0 0
5 4 4 4 4 4 4 3 3 3 4 5 4 3 2 2 1 1 1 1 1 1 2 5 6 5 4 3 3 2 3 4 4 4 4 3 2 1 0 0 0 0 0
4 3 3 2 2 2 1 1 1 3 5 6 3 2 1 1 0 0 0 1 1 1 2 3 4 3 3 2 2 2 3 4 4 4 3 2 2 2 1 0 0 0 0
2 2 2 3 3 2 2 2 3 5 6 6 4 1 0 0 0 0 0 1 2 2 2 2 2 2 1 1 1 2 4 5 6 5 3 1 1 2 1 0 0 0 0
1 2 3 4 4 5 6 7 9 9 9 9 8 4 1 1 1 0 0 1 1 1 1 1 1 1 0 2 3 4 4 5 5 4 3 2 1 1 1 0 0 0 0
2 3 4 6 7 8 9 12 12 13 13 13 12 9 4 2 1 1 1 1 1 0 0 0 0 1 2 3 4 4 4 4 3 2 2 2 1 0 0 0 0 0 0
3 4 7 11 13 13 14 14 13 14 16 15 15 13 9 5 4 3 2 1 1 2 1 1 1 2 4 5 5 4 3 3 2 1 1 2 1 0 0 0 1 1 1
4 5 7 12 14 15 16 15 13 15 16 15 15 15 12 9 7 6 3 2 2 2 2 2 2 4 5 6 5 4 2 1 1 0 0 1 1 0 0 1 1 0 0
3 4 6 9 12 12 14 16 16 17 18 16 14 13 12 11 11 9 6 4 2 2 3 4 4 5 6 6 5 3 1 0 0 0 0 0 0 0 0 0 0 0 0
1 3 5 9 11 11 12 14 17 20 21 19 17 14 12 11 11 10 8 5 3 3 4 5 5 6 7 8 6 3 1 0 0 0 0 0 0 0 0 0 0 0 0
2 4 6 8 10 11 12 13 14 18 21 21 20 17 13 11 10 10 9 6 4 3 4 6 6 6 8 9 8 4 2 1 0 0 0 0 0 0 0 0 0 0 0
7 8 8 8 11 13 14 14 14 16 20 21 21 19 15 13 12 12 10 8 6 5 5 7 7 6 7 8 7 6 5 2 0 0 0 0 0 0 0 0 0 0 0
13 13 13 14 14 14 14 16 18 19 21 22 21 21 19 16 17 16 14 12 10 7 6 6 7 7 7 6 6 5 4 2 0 0 0 0 0 0 0 0 0 0 0
18 18 19 18 16 15 16 19 22 24 25 25 23 23 22 21 21 21 18 16 13 11 8 6 7 9 8 7 5 3 2 1 1 0 0 0 0 0 0 0 0 0 0
20 20 21 20 19 19 21 23 25 27 28 28 26 23 23 24 25 23 20 16 14 14 13 11 9 9 10 7 5 4 3 3 2 0 0 0 0 0 0 0 0 0 0
22 22 23 24 24 24 25 26 28 28 28 27 25 22 22 24 26 24 20 16 14 16 18 16 12 10 10 8 7 6 6 7 4 1 0 0 0 0 0 0 0 0 0
23 24 25 26 27 26 25 27 28 26 24 23 22 21 21 22 24 22 19 18 16 17 18 16 14 12 10 10 11 9 8 10 9 4 2 1 1 1 0 0 0 0 0
25 26 26 26 27 25 23 24 25 24 22 22 22 22 20 20 18 16 15 15 15 15 15 14 13 12 12 13 13 11 9 11 11 7 4 2 2 1 0 0 0 0 0
30 29 28 27 26 23 20 18 20 22 23 23 25 25 22 20 17 13 9 8 9 10 10 10 10 11 12 13 13 11 10 10 10 7 4 2 1 1 0 0 0 0 0
35 33 31 29 26 22 15 11 13 19 24 25 26 27 25 22 20 15 10 5 5 5 6 7 9 9 10 11 11 11 10 10 10 8 4 2 1 1 0 0 0 0 0
34 33 31 30 27 20 10 5 8 16 23 24 24 26 26 24 20 17 14 11 9 7 5 5 6 7 6 8 10 11 10 10 10 9 6 3 2 1 1 1 0 0 0
29 29 29 28 25 18 8 3 6 16 23 25 25 24 22 19 16 12 16 18 17 13 6 3 3 2 2 4 7 9 10 9 8 8 8 5 3 2 2 2 1 0 0
25 26 27 25 23 17 8 2 5 16 23 27 28 24 16 14 11 10 16 22 21 15 8 2 1 0 0 1 3 7 8 7 6 7 8 6 3 3 3 2 2 1 0

GEFSMA_con_prob3kmehi_216.txt.gz
EHI
5 5 4 4 4 5 9 10 9 8 7 5 1 1 2 3 2 2 8 17 20 16 14 13 13 14 14 13 12 11 9 8 6 5 3 2 1 0 0 0 0 0 0
10 9 9 9 8 8 10 11 9 7 7 6 3 2 2 3 3 4 8 16 20 18 18 16 16 17 16 13 11 10 9 9 7 6 4 3 1 0 0 0 0 0 0
16 14 13 13 12 11 13 14 11 7 6 6 6 5 4 6 7 7 9 14 16 16 17 19 21 21 19 13 9 8 9 10 9 8 6 4 2 1 0 0 0 0 0
16 15 14 13 12 12 14 14 12 9 7 7 9 9 9 10 12 11 11 13 14 12 12 17 22 24 21 13 7 7 9 11 11 10 8 6 4 1 0 0 0 0 0
16 15 15 15 13 12 12 10 10 11 11 9 9 11 13 15 16 14 12 12 14 13 12 13 18 20 18 14 10 9 11 12 12 12 11 9 6 4 2 0 0 0 0
17 18 19 20 17 14 12 10 10 14 16 14 11 11 15 18 19 17 13 12 13 14 16 17 19 17 15 16 16 15 15 14 14 14 12 11 9 6 4 2 0 0 0
15 18 19 20 21 19 17 14 13 16 19 19 15 12 12 14 17 17 14 12 11 12 16 22 25 23 18 16 15 16 18 18 17 15 12 11 10 7 5 3 1 0 0
15 15 16 17 18 20 20 18 17 19 20 20 18 13 9 9 9 10 12 13 11 12 14 19 28 32 27 19 13 12 16 19 18 16 13 11 9 5 2 1 0 0 0
17 16 16 17 17 19 21 21 21 22 20 18 17 14 12 10 6 5 8 12 14 15 14 14 22 33 33 26 20 16 16 17 17 16 14 12 8 4 1 0 0 0 0
20 20 21 23 22 21 21 21 23 23 18 14 15 16 16 15 10 6 6 10 15 17 15 13 18 27 32 32 30 26 19 15 15 14 12 10 7 4 1 0 0 0 0
24 23 25 29 28 23 20 22 24 23 16 12 13 17 19 19 16 11 8 8 11 15 17 18 21 25 29 34 34 28 19 13 10 10 8 7 5 3 2 1 1 0 0
30 27 28 32 31 26 23 24 25 23 19 15 14 16 20 20 17 14 12 10 11 14 19 24 27 26 27 30 29 22 17 11 6 4 4 4 3 3 3 2 1 0 0
33 34 35 38 35 28 25 26 25 22 21 19 17 18 20 19 16 14 13 13 13 15 19 24 27 26 24 24 21 16 13 8 3 1 2 2 2 2 3 2 1 0 0
32 37 43 43 38 30 26 25 24 21 21 20 19 20 21 17 15 15 16 14 13 13 16 20 24 25 25 21 15 12 10 6 2 0 0 1 1 1 1 1 1 0 0
32 38 45 43 38 30 24 23 23 22 22 20 20 22 22 18 16 19 20 18 16 12 12 17 22 25 25 19 13 12 11 6 2 0 0 0 0 0 0 0 0 0 0
36 42 46 43 38 32 26 23 24 24 24 22 20 22 23 21 21 23 23 22 21 16 12 15 21 23 22 16 13 15 14 9 3 0 0 0 0 0 0 0 0 0 0
43 45 45 42 39 36 32 30 27 25 26 25 23 23 25 26 25 24 22 22 22 19 15 16 20 23 23 18 15 16 14 10 5 1 0 0 0 0 0 0 0 0 0
50 49 46 41 37 35 36 36 31 27 27 29 29 27 27 27 27 24 21 20 19 17 16 17 21 24 22 18 16 14 12 10 6 2 0 0 0 0 0 0 0 0 0
55 53 49 42 35 32 34 36 34 28 27 30 31 30 27 27 26 24 22 21 19 15 16 17 19 22 20 17 15 14 12 10 7 4 1 0 0 0 0 0 0 0 0
53 53 50 44 36 30 30 33 34 30 28 29 29 27 26 25 24 22 22 22 20 17 18 17 16 19 19 17 15 13 11 10 8 6 4 2 1 0 0 0 0 0 0
47 49 48 43 36 28 25 28 30 30 31 31 29 26 24 22 20 17 17 19 19 18 19 16 14 15 16 15 14 12 10 9 8 8 7 4 2 0 0 0 0 0 0
45 46 45 41 36 27 19 18 23 28 31 33 30 26 22 19 19 16 13 12 12 13 14 13 13 13 14 14 13 11 9 7 7 8 7 4 2 1 1 1 0 0 0
45 44 42 41 37 27 15 11 16 24 29 31 30 27 23 20 21 21 16 10 9 8 8 10 12 14 15 15 15 12 8 6 7 7 5 3 3 2 2 1 0 0 0
44 43 41 40 38 28 15 8 11 19 25 27 28 29 27 23 20 22 21 16 13 10 7 8 11 13 14 14 14 12 9 7 7 6 5 4 4 4 3 2 0 0 0
38 38 37 36 34 27 15 6 8 16 22 24 27 29 28 22 15 16 20 22 21 17 10 6 7 8 8 9 11 11 9 7 6 6 6 5 5 4 3 2 0 0 0
32 32 32 33 31 25 15 6 6 15 21 24 28 29 23 17 11 11 19 25 25 20 13 7 5 4 4 5 7 8 8 7 5 6 6 7 6 4 2 1 1 0 0

GEFSMA_con_prob3kmehi_222.txt.gz
EHI
1 0 0 0 0 0 0 0 0 0 0 0 0 0 0 0 0 0 1 3 6 9 11 11 10 10 9 8 7 6 6 5 4 3 3 2 1 1 0 1 2 2 1
2 1 0 0 0 0 0 0 0 0 0 0 0 0 0 0 0 0 0 2 6 11 13 13 13 12 10 8 7 6 6 5 4 3 3 3 2 2 1 1 1 1 0
3 2 0 0 1 1 0 0 0 0 0 0 0 0 0 0 0 0 0 0 3 8 12 15 16 14 11 8 6 6 5 4 4 3 3 3 3 3 3 2 1 1 0
6 4 2 1 1 1 0 0 0 1 1 0 0 0 0 0 0 0 0 1 1 3 7 13 16 14 11 8 7 6 5 5 4 4 3 4 4 4 4 3 3 2 1
7 5 3 1 1 1 0 0 0 1 1 0 0 0 0 0 0 1 1 2 2 1 3 7 10 11 11 11 9 8 7 7 7 5 4 4 5 5 4 3 3 2 1
6 5 2 0 0 0 0 0 0 1 1 0 0 0 0 0 0 1 2 3 3 3 2 3 3 6 9 12 14 14 12 11 10 8 6 6 6 6 4 3 2 2 1
6 4 1 0 0 0 0 0 0 0 0 0 0 0 0 0 0 1 1 2 2 2 2 2 1 2 5 10 15 18 17 15 13 11 10 9 9 7 6 4 2 2 2
5 3 2 1 0 0 0 1 1 0 0 0 0 0 0 0 0 0 0 1 1 1 1 2 2 2 2 5 9 14 18 20 18 16 14 13 11 9 7 4 2 1 1
4 4 4 3 2 1 0 0 1 1 0 0 0 0 0 0 1 0 0 0 0 0 0 1 1 1 1 1 3 7 15 20 23 20 18 16 12 9 6 3 1 0 0
4 5 6 5 4 3 3 2 1 0 0 0 0 0 0 0 0 0 0 0 0 0 0 1 0 0 0 1 1 3 8 15 18 18 17 16 13 9 5 3 1 0 0
3 5 6 6 7 8 8 6 3 1 0 0 0 0 0 0 0 0 0 0 0 0 0 0 0 0 0 2 3 3 4 6 8 9 10 11 10 8 6 4 1 0 0
2 5 6 7 9 11 10 8 5 3 2 1 0 0 0 0 1 0 0 0 0 0 0 0 0 0 0 2 6 7 5 3 2 2 4 6 7 7 7 5 3 1 1
4 5 7 9 11 11 9 8 6 6 5 4 2 1 0 0 0 0 0 0 0 0 0 0 0 0 0 2 5 8 8 4 1 0 2 3 4 6 6 5 4 2 2
6 6 8 9 10 9 9 7 7 6 7 7 5 3 1 1 0 1 1 1 0 0 0 0 0 0 0 1 2 5 6 4 1 0 0 1 2 3 3 3 2 1 1
10 11 11 10 8 8 9 8 7 7 8 9 7 5 3 2 2 2 2 2 1 0 0 0 0 0 0 0 1 1 2 2 1 0 0 0 1 1 1 1 0 0 0
15 14 13 11 8 7 8 9 9 7 8 10 8 6 5 4 4 4 4 4 4 2 1 0 0 0 0 0 0 0 1 1 0 0 0 0 0 0 0 0 0 0 0
15 15 13 12 10 8 8 11 11 9 8 8 8 7 6 6 8 8 7 6 6 4 2 1 0 0 0 0 0 1 1 1 0 0 0 0 0 0 0 0 0 0 0
15 15 16 14 12 10 10 12 13 11 8 7 7 7 7 7 9 10 9 8 7 6 4 2 1 0 0 0 0 1 2 2 1 0 0 0 0 0 0 0 0 0 0
17 17 18 17 14 12 12 12 12 10 8 7 7 7 6 7 7 7 7 7 6 6 6 4 3 1 1 1 1 1 2 2 1 0 0 0 0 0 0 0 0 0 0
19 17 17 17 15 14 13 12 10 8 7 7 7 7 7 7 6 5 4 5 5 6 6 6 4 2 2 2 2 3 3 2 0 0 0 0 0 0 0 0 0 0 0
21 18 15 15 15 12 11 11 10 8 6 5 6 6 6 6 5 4 3 3 3 4 4 5 3 2 1 2 3 3 3 2 1 0 0 0 0 0 0 0 0 0 0
24 20 16 15 14 10 7 6 7 7 6 5 6 7 6 6 4 3 2 2 1 1 2 2 1 0 0 1 1 2 3 3 1 0 0 0 0 0 0 0 0 0 0
23 20 15 15 14 9 5 3 4 5 5 6 6 6 6 6 6 4 2 2 1 1 1 1 0 0 0 0 1 2 3 3 2 0 0 0 0 0 0 0 0 0 0
19 16 14 15 14 8 3 1 2 3 5 5 5 5 6 7 8 5 4 3 3 2 1 1 1 1 0 0 1 2 3 3 1 0 0 0 0 0 0 0 0 0 0
16 14 14 16 14 7 2 0 1 3 5 5 5 5 6 7 6 4 5 5 4 3 1 1 1 1 0 0 1 1 2 2 1 0 0 0 0 0 0 0 0 0 0
14 14 16 17 13 7 2 0 1 4 5 5 5 6 7 6 3 2 5 6 4 3 2 1 1 1 0 0 0 0 1 2 1 0 0 0 0 0 0 0 0 0 0

GEFSMA_con_prob3kmehi_228.txt.gz
EHI
0 0 0 0 0 1 1 1 1 0 0 0 1 1 1 2 3 3 3 3 3 3 3 4 4 4 6 7 9 10 10 9 8 7 7 6 6 5 4 4 4 4 3
0 0 0 0 0 1 1 2 2 1 1 1 2 2 2 3 3 3 3 3 3 3 3 4 4 4 5 7 8 9 10 9 9 8 7 7 6 6 6 6 5 4 4
0 0 0 0 0 1 2 3 3 3 2 2 2 3 3 3 3 3 3 3 3 3 3 4 4 4 4 5 7 9 10 10 10 9 9 7 7 6 6 6 6 6 6
0 0 0 0 0 1 3 3 3 3 3 2 2 2 3 3 3 3 3 3 3 3 3 3 4 3 4 4 6 7 9 9 9 10 9 9 7 7 6 6 6 6 6
0 0 0 0 1 2 3 3 3 3 3 2 2 3 3 3 3 3 3 3 3 4 4 4 4 4 5 6 7 7 7 8 9 10 10 9 8 7 6 5 4 4 4
0 0 1 1 2 3 3 3 3 3 3 3 3 3 3 3 3 3 3 3 4 4 5 5 5 5 5 7 8 8 9 9 9 9 9 9 9 7 5 4 3 3 3
1 1 2 3 3 3 3 3 3 3 3 3 3 3 3 3 3 3 3 3 3 4 4 4 4 4 4 5 6 8 10 10 9 8 8 8 9 8 5 2 2 3 3
2 2 3 3 3 3 3 3 3 3 3 3 3 3 3 3 3 3 3 3 3 3 3 3 3 3 3 2 3 5 7 9 8 7 8 9 8 7 5 3 3 3 3
2 3 3 3 3 3 3 3 3 3 3 3 3 3 3 3 3 3 3 3 3 3 3 3 3 3 3 2 1 2 4 6 7 7 9 12 11 8 6 5 4 4 4
3 3 3 3 3 3 3 3 3 3 3 3 3 3 3 3 3 3 3 3 3 3 3 3 3 3 3 2 1 1 2 4 5 6 10 14 15 13 10 7 6 5 5
3 3 3 3 3 4 4 4 3 3 3 3 3 3 3 3 3 3 3 3 3 3 3 3 3 3 3 2 1 1 2 3 3 4 7 10 13 13 12 9 7 6 7
4 4 3 3 4 4 5 4 4 4 3 3 3 3 3 3 3 3 3 3 3 2 1 1 2 3 3 1 0 1 2 1 1 2 3 5 7 8 9 9 8 8 8
6 5 5 5 5 5 5 4 4 4 4 4 4 4 4 3 3 3 3 3 3 1 0 0 1 2 2 1 0 2 2 1 0 1 1 2 3 3 4 5 6 6 6
6 7 8 8 8 7 5 4 3 4 5 6 6 6 5 5 4 4 3 3 3 2 1 0 0 1 1 1 0 1 1 1 0 0 0 1 1 1 2 2 2 2 2
6 8 10 9 9 8 6 4 4 4 5 6 7 6 6 5 5 4 3 4 5 5 3 1 0 1 1 0 0 0 0 0 0 0 0 0 0 0 0 0 0 0 0
7 8 9 9 8 8 7 5 5 6 6 7 7 6 4 4 4 4 3 4 6 7 5 3 2 2 1 0 0 0 0 0 0 0 0 0 0 0 0 0 0 0 0
7 7 8 8 9 8 8 7 8 9 9 9 8 5 4 4 4 4 4 5 6 6 6 5 4 3 1 0 0 1 0 0 0 0 0 0 0 0 0 0 0 0 0
7 7 7 8 8 8 8 8 10 11 11 10 8 6 5 6 5 5 5 5 5 5 5 4 3 3 1 0 1 2 1 0 0 0 0 0 0 0 0 0 0 0 0
7 6 6 6 5 5 6 8 11 11 9 9 8 7 8 8 6 5 5 4 4 4 4 3 2 3 2 1 1 1 1 1 0 0 0 0 0 0 0 0 0 0 0
7 6 5 5 4 4 5 8 11 11 9 8 8 7 8 9 7 6 5 4 4 3 4 3 3 3 3 2 1 1 1 1 1 0 0 0 0 0 0 0 0 0 0
8 9 8 7 7 6 6 8 11 12 10 7 7 7 7 7 7 6 5 4 3 3 3 2 3 3 2 1 1 2 2 2 1 0 0 0 0 0 0 0 0 0 0
11 12 13 12 10 8 6 6 9 10 9 6 6 7 7 6 4 4 3 2 2 3 2 1 2 1 1 0 0 1 2 1 1 0 0 0 0 0 0 0 0 0 0
15 16 17 15 11 7 5 4 5 7 6 6 6 7 8 6 3 3 2 2 2 1 1 1 1 0 0 0 0 0 0 0 0 0 0 0 0 0 0 0 0 0 0
18 19 19 17 13 7 4 3 3 4 4 5 6 8 9 7 4 3 5 5 3 2 1 0 0 0 0 0 0 0 0 0 0 0 0 0 0 0 0 0 0 0 0
19 19 19 19 16 10 4 1 1 3 4 5 6 7 7 5 3 3 6 7 5 3 2 1 0 0 0 0 0 0 0 0 0 0 0 0 0 0 0 0 0 0 0
18 17 17 19 18 13 5 1 1 3 5 6 6 5 4 2 1 2 6 8 6 4 3 2 1 0 0 0 0 0 0 0 0 0 0 0 0 0 0 0 0 0 0

GEFSMA_con_prob3kmehi_234.txt.gz
EHI
1 0 0 0 0 0 0 1 0 0 0 0 0 0 0 0 0 0 1 2 3 2 1 0 0 0 0 0 0 0 0 1 3 3 3 1 0 0 0 0 0 0 0
2 1 1 0 0 1 1 1 0 0 0 0 0 0 0 0 0 0 0 2 4 4 2 1 0 0 0 0 0 0 1 2 3 3 3 2 1 0 1 1 1 1 0
2 2 2 1 1 2 2 1 1 0 0 0 0 0 0 0 0 0 0 1 4 5 5 3 1 1 1 2 2 2 2 3 3 3 3 3 2 2 2 2 2 2 1
1 1 2 2 2 3 2 1 1 0 0 0 0 0 0 1 1 1 1 1 2 3 5 4 3 3 2 3 5 5 4 4 5 5 5 4 3 3 3 3 3 3 3
0 1 1 2 2 2 2 1 1 0 0 0 0 0 0 0 0 0 0 0 1 2 3 4 4 3 3 3 4 4 5 6 8 9 8 7 5 4 4 3 3 3 3
1 2 2 2 2 3 3 2 1 0 0 1 1 1 0 0 0 0 0 0 0 2 3 3 3 2 2 2 2 2 4 5 7 8 8 8 6 4 3 3 3 3 3
1 2 2 3 3 5 5 2 1 0 1 2 2 2 1 0 0 0 0 0 0 1 2 2 2 2 2 1 1 1 2 3 4 5 6 6 4 3 2 3 3 3 3
3 2 2 2 3 4 4 3 3 2 3 4 5 3 1 0 0 0 0 0 0 0 1 1 1 2 3 2 1 2 4 5 4 4 5 5 4 2 2 1 2 3 3
4 3 2 2 3 4 5 6 6 6 6 7 7 5 3 2 1 0 0 0 0 0 0 1 1 2 5 6 5 6 8 9 6 5 6 7 6 4 3 2 2 3 3
6 5 3 4 5 6 8 9 9 8 8 7 7 7 6 5 3 1 0 0 0 0 0 0 1 3 6 9 9 8 8 8 5 5 6 7 8 7 5 4 3 3 3
9 8 7 9 10 10 11 11 11 10 8 7 7 7 8 7 5 3 1 0 0 0 0 0 0 2 6 8 8 7 5 3 2 3 5 6 7 8 7 6 5 4 3
11 11 12 14 15 14 13 11 11 11 9 7 7 7 8 7 6 4 2 1 1 0 0 0 0 2 5 7 7 5 2 1 0 1 2 3 6 7 6 6 7 5 4
11 13 15 17 17 15 13 12 10 10 9 7 6 5 6 7 7 7 5 4 2 2 1 1 2 4 5 7 7 3 1 0 0 0 0 1 3 4 4 4 6 5 4
11 14 16 17 16 15 13 12 10 9 9 7 5 4 4 5 6 8 9 8 5 4 4 3 3 5 7 8 6 3 1 1 0 0 0 0 1 1 1 1 3 4 3
16 17 18 17 15 15 15 13 11 10 9 8 6 6 6 5 5 8 11 11 8 6 4 4 4 6 8 8 6 4 4 3 1 0 0 0 0 0 0 0 1 1 1
23 22 21 19 17 16 17 16 13 10 9 8 9 9 8 5 5 6 8 10 9 6 4 3 4 6 9 7 5 7 7 4 2 0 0 0 0 0 0 0 0 0 0
26 25 23 21 18 17 19 18 14 12 10 10 10 10 9 8 8 8 8 8 8 8 5 3 3 7 9 7 6 9 9 5 3 1 0 0 0 0 0 0 0 0 0
30 27 23 19 18 19 21 20 16 13 12 12 11 11 11 11 13 14 13 11 10 10 9 5 4 6 8 7 6 9 9 5 4 3 1 0 0 0 0 0 0 0 0
35 31 26 23 20 20 21 21 17 14 14 14 14 13 12 14 17 20 19 17 13 13 12 8 6 6 6 5 5 6 5 4 4 3 2 1 1 0 0 0 0 0 0
36 34 32 30 25 22 22 22 20 18 18 18 18 17 16 16 18 20 21 19 17 16 15 11 8 7 7 7 6 4 3 4 4 4 4 3 2 1 0 0 0 0 0
33 33 33 33 29 24 22 22 22 23 24 24 24 23 21 18 15 15 14 15 18 20 20 16 11 8 9 11 8 5 4 4 5 5 5 4 3 2 2 2 1 0 0
33 32 32 31 28 23 18 16 19 23 27 29 28 25 22 18 13 10 7 7 11 17 21 19 15 11 13 14 12 9 7 7 6 6 5 4 3 4 4 3 1 0 0
34 33 32 31 27 21 14 8 11 19 25 27 27 24 20 18 16 13 9 5 6 8 13 18 17 15 16 17 16 13 12 11 10 9 8 6 5 5 4 3 1 0 0
34 33 33 33 29 21 11 5 7 15 21 22 23 22 21 20 18 16 13 9 7 6 7 9 13 13 13 14 15 15 14 14 14 14 13 10 7 6 5 2 1 0 0
35 33 32 32 29 19 8 2 5 13 17 18 18 19 20 19 13 10 12 11 10 9 5 3 5 6 7 8 10 12 14 14 14 15 15 13 10 7 6 4 2 1 0
36 34 31 30 27 19 8 1 3 11 16 16 16 17 17 14 8 5 9 11 10 8 6 2 1 1 2 3 5 9 13 14 13 14 16 15 11 7 7 6 4 2 1

GEFSMA_con_prob3kmehi_240.txt.gz
EHI
6 5 4 4 4 5 5 3 2 3 4 4 5 6 7 7 7 8 10 16 19 19 17 14 10 6 5 5 5 5 6 6 6 5 4 3 3 3 3 3 2 1 1
6 5 4 5 5 6 6 6 5 5 4 5 5 5 6 6 7 8 9 13 17 19 18 16 14 9 7 7 7 7 7 7 7 5 4 3 3 3 3 3 3 2 2
5 5 4 5 5 5 7 9 8 6 5 6 6 6 6 7 7 7 8 10 14 18 20 21 21 18 14 11 9 9 8 8 6 5 4 3 3 3 3 3 3 3 3
6 6 5 5 4 4 6 9 8 5 5 6 7 7 7 8 9 7 7 8 12 17 21 25 29 28 22 15 10 9 9 8 6 5 4 3 2 1 2 2 2 2 2
6 7 8 8 6 5 6 6 5 4 5 6 6 7 8 10 10 7 6 7 12 18 22 26 30 30 25 19 15 14 14 13 11 7 4 4 3 2 1 1 1 1 1
8 9 11 12 10 7 7 5 4 5 6 7 6 6 8 10 10 8 7 7 13 19 22 27 30 25 22 22 20 19 19 19 17 12 8 6 5 3 1 0 0 0 0
14 14 14 14 12 11 9 8 8 9 9 9 7 7 7 8 8 10 10 10 12 16 20 28 33 29 24 21 18 18 19 20 19 16 12 9 6 4 3 1 0 0 0
20 18 18 17 15 15 14 14 15 12 9 8 8 7 6 6 7 9 13 14 13 15 18 25 33 36 33 24 16 14 17 19 20 20 17 12 8 7 5 2 1 0 0
25 21 21 22 20 19 19 20 20 14 9 7 7 7 7 6 6 9 12 14 17 19 18 18 24 32 36 31 22 18 19 20 22 24 21 16 12 10 7 4 3 1 1
29 25 23 25 24 21 20 21 18 14 11 8 7 9 10 9 8 7 8 10 14 19 18 12 13 22 31 32 30 29 26 22 22 23 21 17 14 11 9 7 5 3 2
32 30 28 29 28 25 22 19 16 15 13 10 9 9 10 11 9 6 4 5 8 13 14 11 10 16 24 29 32 32 29 24 20 18 17 14 13 11 10 9 8 5 4
33 32 34 35 33 31 27 22 18 18 17 15 12 9 8 9 8 5 3 3 4 8 12 13 13 14 18 24 28 28 27 22 14 10 10 10 10 10 10 10 9 8 5
30 32 37 42 41 38 34 29 24 23 24 21 16 10 7 7 7 6 4 2 3 6 10 14 15 15 17 23 25 24 21 14 5 3 4 5 6 7 7 8 9 8 6
28 33 42 45 43 40 37 33 28 26 28 25 17 13 11 9 8 8 6 4 3 4 8 12 14 16 21 25 24 21 18 9 2 0 1 1 2 3 3 5 6 6 5
30 38 44 42 37 35 35 34 29 27 29 26 21 19 16 12 8 7 7 8 6 4 6 10 14 17 21 22 20 20 19 9 2 1 0 0 0 1 1 2 3 3 3
38 43 46 40 34 31 31 31 30 29 30 28 24 23 20 14 10 7 8 10 11 8 7 10 15 18 19 16 15 19 19 10 4 2 0 0 0 0 0 1 1 1 1
46 47 47 43 36 32 31 31 30 29 29 28 25 24 22 18 14 12 11 12 14 14 12 12 15 18 19 18 17 18 16 9 5 2 0 0 0 0 0 0 0 0 0
50 50 49 47 42 37 36 35 32 29 28 28 26 25 24 22 23 22 18 15 15 17 18 18 19 21 22 24 23 20 14 7 4 2 0 0 0 0 0 0 0 0 0
54 53 51 49 46 43 40 37 35 33 33 32 30 27 26 27 27 27 23 18 17 19 21 23 23 23 25 27 26 21 14 7 3 1 0 0 0 0 0 0 0 0 0
54 53 51 48 45 43 40 36 34 35 36 35 32 27 26 27 25 23 20 20 20 20 21 22 21 21 24 26 26 21 15 9 4 1 0 0 0 0 0 0 0 0 0
47 47 45 42 39 37 34 31 30 31 33 32 29 27 24 23 20 16 14 16 18 19 19 19 18 19 21 23 24 20 14 10 6 2 1 1 1 1 1 0 0 0 0
42 40 39 36 33 30 24 22 23 27 29 30 30 28 24 20 15 12 11 10 11 12 13 14 15 16 18 20 21 18 13 10 8 5 3 2 3 4 3 1 0 0 0
43 41 39 35 31 26 18 12 14 21 27 30 30 29 25 21 16 13 11 9 9 8 7 8 10 12 14 16 17 15 12 11 10 8 5 4 4 6 5 2 0 0 0
46 43 40 35 31 25 15 7 8 16 24 27 25 24 23 21 17 14 12 13 14 11 6 4 5 6 9 11 10 9 9 10 10 9 7 5 4 4 4 2 0 0 0
42 40 37 34 30 23 14 6 7 16 22 22 19 16 16 16 14 13 13 14 16 14 8 3 2 2 3 4 4 4 5 7 8 8 9 7 5 4 4 2 0 0 0
38 37 34 31 29 23 13 6 8 17 21 20 16 12 10 11 11 11 12 14 15 14 10 5 2 0 0 0 1 3 4 5 6 8 9 9 7 5 4 2 1 0 0

GEFSMA_con_prob3kmehi_246.txt.gz
EHI
0 0 0 0 0 0 0 0 0 0 0 0 0 0 1 1 1 1 2 7 14 17 18 17 15 13 12 9 6 3 2 2 3 2 1 0 0 1 1 1 0 0 0
1 0 0 0 0 0 0 0 0 0 0 0 0 0 1 2 2 2 2 6 11 15 17 16 15 15 14 12 9 6 5 6 5 4 2 0 0 0 0 0 0 0 0
2 1 1 1 0 0 0 0 0 0 0 0 0 0 1 2 2 2 2 4 8 12 15 16 18 18 17 15 11 8 9 10 8 5 2 1 0 0 0 0 0 0 0
3 3 2 2 1 0 0 0 0 0 0 0 0 0 0 1 1 1 1 3 6 8 11 16 20 20 19 17 13 10 11 12 10 7 4 2 0 0 0 0 0 0 0
4 3 3 3 2 0 0 0 0 0 1 0 0 0 0 0 0 0 1 2 3 4 6 10 16 18 20 20 18 16 15 14 12 8 5 3 1 0 0 0 0 0 0
5 4 3 3 2 1 0 0 0 0 0 0 0 0 0 0 0 0 0 1 1 2 2 4 8 12 16 20 21 21 21 18 13 9 6 4 2 1 0 0 0 0 0
5 4 2 2 3 2 1 0 0 0 0 0 0 0 0 0 0 0 0 0 0 0 0 1 3 5 8 11 14 18 19 17 14 13 10 7 4 2 1 1 0 0 0
5 4 2 2 3 2 1 0 1 1 1 0 0 0 0 0 0 0 0 0 0 0 0 2 3 3 3 3 5 10 13 12 13 15 15 11 8 5 3 2 1 1 0
7 6 4 2 2 1 1 0 1 2 2 0 0 0 0 0 0 0 0 0 0 0 0 1 3 4 4 2 2 5 8 10 11 13 14 13 11 8 6 5 3 1 1
9 8 6 3 2 1 1 1 1 2 3 2 1 0 0 0 0 0 0 0 0 0 0 0 2 3 4 4 3 3 5 8 10 12 12 12 12 11 9 6 4 2 1
8 7 7 6 4 4 4 4 4 4 6 6 3 1 1 1 1 1 0 0 0 0 0 0 0 1 2 3 4 5 5 6 8 9 9 9 10 11 9 6 4 3 2
7 6 6 7 7 7 7 7 7 6 8 8 6 3 2 2 2 2 1 1 0 0 0 0 0 1 1 1 4 7 7 6 5 5 4 5 6 8 8 6 4 3 3
7 6 4 4 6 7 8 8 8 7 7 7 6 5 3 3 3 3 3 2 1 0 0 0 0 0 1 1 4 6 7 6 3 1 1 1 2 4 5 5 4 3 3
8 6 3 2 5 8 8 8 7 6 5 6 5 5 4 2 2 3 3 3 2 1 0 0 0 0 0 1 2 3 4 4 2 1 0 0 0 1 3 4 3 2 2
10 8 4 3 6 11 12 10 8 6 5 4 4 4 3 2 1 1 2 3 2 1 1 0 0 0 0 0 0 1 1 1 1 0 0 0 0 0 1 1 1 0 1
13 11 8 6 9 14 14 11 9 7 5 3 2 2 2 1 1 1 1 2 3 3 2 1 0 0 0 0 0 0 0 0 0 0 0 0 0 0 0 0 0 0 0
15 15 12 11 14 18 16 12 10 9 7 4 2 1 0 0 0 0 0 2 4 4 3 1 0 0 0 0 0 0 0 0 0 0 0 0 0 0 0 0 0 0 0
16 17 17 18 19 21 20 16 13 11 9 7 3 1 1 0 0 0 1 2 4 5 4 2 2 1 1 1 1 1 0 0 0 0 0 0 0 0 0 0 0 0 0
16 17 19 21 21 21 21 18 14 12 12 9 5 3 3 2 1 2 3 3 3 4 4 3 3 3 2 2 2 2 1 0 0 0 0 0 0 0 0 0 0 0 0
16 17 18 21 21 21 20 17 14 13 12 10 7 5 4 4 4 4 5 4 4 4 4 3 3 3 3 2 3 3 2 1 0 0 0 0 0 0 0 0 0 0 0
17 18 19 20 21 20 19 17 15 12 11 9 7 6 6 6 6 5 5 5 5 6 5 4 4 4 3 3 2 2 2 1 0 0 0 0 0 0 0 0 0 0 0
15 17 18 18 18 18 16 15 14 11 9 7 6 5 5 5 5 4 3 4 4 5 6 6 6 5 4 3 1 1 1 0 0 0 0 0 0 0 0 0 0 0 0
15 15 14 14 15 14 12 10 9 8 7 5 4 4 3 4 4 3 3 2 2 3 4 6 7 5 4 2 1 0 0 0 0 0 0 0 0 0 0 0 0 0 0
16 15 13 12 12 11 8 6 5 5 5 4 4 4 4 4 3 3 3 3 2 1 1 3 3 3 3 2 1 0 0 0 0 0 0 0 0 0 0 0 0 0 0
17 17 15 13 11 9 5 3 4 5 5 4 4 4 5 4 2 2 2 2 2 1 0 0 1 1 2 1 0 0 0 0 0 0 0 0 0 0 0 0 0 0 0
20 18 15 13 12 9 5 2 4 7 6 4 3 3 4 3 1 1 1 1 1 0 0 0 0 0 1 0 0 0 0 0 0 0 0 0 0 0 0 0 0 0 0